Погода в Залесной

Россия / Пермский край     58°11′29″N   56°23′57″E
темп.,
°C
ветер,
м/с
пор.,
м/с
влажн.,
%
обл.,
%
осадки,
мм/ч
давл.,
гПа
погр.,
м
6 мая, чт
чт623:00+6зюз4107889 0.3 1001484
02:00+4зюз4118466 0.0 1003642
05:00+3з5118290 0.0 10041004
08:00+3з51073100 0.0 10061439
11:00+5з51062100 0.1 10101594
14:00+8зсз594499 0.0 10111948
17:00+11зсз593633 0.0 10122096
20:00+9з37480 0.0 1014302
7 мая, пт
пт723:00+5зюз24710 0.0 101579
02:00+4юз27805 0.0 1016126
05:00+4ююз2686100 0.0 1017118
08:00+9ююз4127596 0.0 1017398
11:00+16юз595665 0.0 10161110
14:00+18юз6942100 0.0 10162489
17:00+18юз484589 0.0 10161423
20:00+15ююз3860100 0.0 1016298
8 мая, сб
сб823:00+13ю31068100 0.1 1017387
02:00+12ю2876100 0.2 1017215
05:00+10ю2385100 0.3 101762
08:00+12з2574100 0.0 1018326
11:00+15зсз2363100 0.2 1019938
14:00+16сз3358100 0.3 10191310
17:00+17ссз224395 0.3 10181732
20:00+14ссв235571 0.0 101963
9 мая, вс
вс923:00+10в11671 0.0 101910
02:00+9вюв11793 0.0 101910
05:00+8вюв22905 0.0 102015
08:00+13юв24715 0.0 1020255
11:00+18юв35473 0.0 10191354
14:00+21ю453528 0.0 10182511
17:00+21ююв46325 0.0 10182649
20:00+17юв3951100 0.0 1018333
10 мая, пн
пн1023:00+13юв2267100 0.0 102047
02:00+12юв296896 0.0 1019159
05:00+11юв267375 0.0 1020142
08:00+13ююз1765100 0.0 1022254
11:00+18зюз3452100 0.0 10221080
14:00+13сз5784100 0.7 1024459
17:00+8ссз4991100 2.7 1026540
20:00+8ссз378835 1.7 1027579